Location: Easthampton
(42.2676°N, 72.6690°W)
Time: 04:08:19
(UTC+00:00)

ITAMSAT 1 - Visible Passes

Search period start: 23 March 2023 00:00
Search period end: 02 April 2023 00:00
Orbit: 784 x 795 km, 98.8° (Epoch: 21 March)

Date Brightness Start Highest point End Pass type
(mag) Time Alt. Az. Time Alt. Az. Time Alt. Az.
23 Mar 9.3 01:15:51 10° SSW 01:20:27 32° W 01:25:06 10° NNW visible
24 Mar 8.2 00:45:33 10° S 00:50:39 60° WSW 00:55:50 10° NNW visible
25 Mar 7.6 00:15:51 10° SSE 00:21:01 74° ENE 00:26:14 10° N visible
25 Mar 10.4 01:58:26 10° WSW 02:01:00 14° W 02:03:34 10° WNW visible
25 Mar 8.2 23:46:40 10° SE 23:51:29 40° ENE 23:56:20 10° N visible
26 Mar 9.6 01:26:45 10° SSW 01:31:02 26° W 01:35:22 10° NW visible
27 Mar 8.6 00:56:12 10° S 01:01:11 48° W 01:06:15 10° NNW visible
28 Mar 7.6 00:26:18 10° SSE 00:31:29 90° SW 00:36:45 10° NNW visible
28 Mar 10.5 02:10:31 10° W 02:11:38 11° W 02:12:45 10° WNW visible
28 Mar 7.9 23:56:56 10° SE 00:01:56 49° ENE 00:06:57 10° N visible
29 Mar 9.9 01:37:44 10° SW 01:41:37 21° W 01:45:31 10° NW visible
30 Mar 8.9 01:06:54 10° SSW 01:11:44 39° W 01:16:37 10° NNW visible
31 Mar 7.9 00:36:48 10° S 00:41:59 74° WSW 00:47:14 10° NNW visible
01 Apr 7.7 00:07:16 10° SSE 00:12:23 61° ENE 00:17:32 10° N visible
01 Apr 10.2 01:48:54 10° SW 01:52:13 17° W 01:55:33 10° NW visible
01 Apr 8.4 23:38:16 10° SE 23:42:54 33° ENE 23:47:33 10° N visible
